#timestamp,LO_Frequency,Hit,StdDev 
1558170015.5,286047004.5,P
1558170035.3,286047008.7,N
1558170055.1,286047013.5,P
1558170075.9,286047020.3,Y
1558170095.7,286047012.8,P
1558170115.5,286047011.1,P
1558170135.4,286047013.8,P
1558170155.2,286047009.6,Y
1558170175.0,286046995.1,P
1558170175.9,286046995.1,N
1558170195.8,286046991.7,N
1558170215.6,286046991.9,N
1558170235.4,286046991.9,N
1558170255.3,286046992.2,N
1558170275.1,286046992.0,N
1558170276.0,286046992.0,N
1558170295.8,286046992.2,N
1558170315.7,286046992.6,N
1558170335.5,286046990.5,N
1558170355.3,286046988.9,N
1558170375.1,286046988.6,N
1558170395.9,286046990.8,N
1558170415.7,286046991.2,N
1558170435.5,286046990.7,N
1558170455.4,286046992.9,N
1558170475.2,286046992.8,N
1558170495.0,286046993.1,N
1558170495.9,286046993.1,N
1558170515.8,286046992.8,N
1558170535.6,286046992.4,N
1558170555.4,286046994.7,N
1558170575.2,286046993.9,N
1558170595.1,286046994.5,N
1558170596.0,286046994.5,N
1558170615.8,286046993.6,N
1558170635.6,286046993.4,N
1558170655.5,286046994.5,N
1558170675.3,286046998.7,N
1558170695.1,286046998.5,N
1558170715.9,286046998.4,N
1558170735.7,286046998.9,N
1558170755.5,286046999.5,N
1558170775.4,286046999.5,N
1558170795.2,286046998.7,N
1558170815.0,286047000.7,N
1558170815.9,286047000.7,N
1558170835.8,286047000.4,N
1558170855.6,286047000.2,N
1558170875.4,286047000.3,N
1558170895.2,286046998.7,N
1558170915.1,286046999.4,N
1558170916.0,286046999.4,N
1558170935.8,286046998.9,N
1558170955.6,286047000.8,N
1558170975.5,286047001.1,N
1558170995.3,286046998.8,N
1558171015.1,286046999.3,N
1558171035.9,286046998.8,N
1558171055.7,286046998.5,N
1558171075.5,286046998.6,N
1558171095.4,286046999.5,N
1558171115.2,286046999.1,N
1558171135.0,286046998.9,N
1558171135.9,286046998.9,N
1558171155.7,286046998.2,N
1558171175.6,286046999.0,N
1558171195.4,286046997.0,N
1558171215.2,286046997.5,N
1558171235.1,286046993.7,Y
1558171236.0,286046993.7,P
1558171255.8,286046996.4,N
1558171275.6,286046996.0,N
1558171295.5,286046997.3,N
1558171315.3,286046995.4,N
1558171335.1,286046997.6,N
1558171355.9,286046999.9,N
1558171375.7,286047001.8,N
1558171395.5,286047003.4,N
1558171415.4,286047003.0,N
1558171435.2,286047003.3,N
1558171455.0,286047004.0,N
1558171455.9,286047004.0,N
1558171475.7,286047001.4,N
1558171495.6,286047001.7,N
1558171515.4,286047002.6,N
1558171535.2,286047003.7,N
1558171555.1,286047005.0,N
1558171556.0,286047005.0,N
1558171575.8,286047009.7,N
1558171595.6,286047011.2,N
1558171615.5,286047013.5,Y
1558171635.3,286047011.6,P
1558171655.1,286047012.4,N
1558171675.9,286047012.0,N
1558171695.7,286047009.7,N
1558171715.5,286047007.8,N
1558171735.4,286047008.8,N
1558171755.2,286047005.0,N
1558171775.0,286047005.4,N
1558171775.9,286047005.4,N
1558171795.7,286047005.6,N
1558171815.6,286047006.9,N
1558171835.4,286047009.0,N
1558171855.2,286047008.3,N
1558171875.1,286047009.3,Y
1558171876.0,286047009.3,P
1558171895.8,286047003.0,P
1558171915.6,286047007.2,N
1558171935.5,286047006.9,N
1558171955.3,286047007.9,Y
1558171975.1,286046999.9,P
1558171995.9,286046999.9,N
1558172015.7,286046998.9,N
1558172035.5,286046997.4,N
1558172055.4,286046996.0,N
1558172075.2,286046995.4,N
1558172095.0,286046999.4,N
1558172095.9,286046999.4,N
1558172115.8,286046999.5,N
1558172135.6,286046998.9,N
1558172155.4,286046998.7,N
1558172175.2,286046999.0,N
1558172195.1,286046998.7,N
1558172196.0,286046998.7,N
1558172215.8,286046999.4,N
1558172235.6,286046997.4,N
1558172255.5,286046995.0,N
1558172275.3,286046997.6,N
1558172295.1,286046995.0,N
1558172315.9,286046995.6,N
1558172335.7,286046993.9,N
1558172355.5,286046992.6,N
1558172375.4,286046992.5,N
1558172395.2,286046988.8,Y
1558172415.0,286046988.7,P
1558172415.9,286046988.7,N
1558172435.8,286046989.7,N
1558172455.6,286046985.4,Y
1558172475.4,286046994.7,P
1558172495.3,286046992.0,P
1558172515.1,286046990.6,P
1558172516.0,286046990.6,Y
1558172535.8,286046998.0,P
1558172555.7,286046998.8,N
1558172575.5,286046998.8,N
1558172595.3,286046998.6,N
1558172615.2,286046996.7,N
1558172635.9,286046995.7,N
1558172655.7,286046993.5,N
1558172675.6,286046991.7,Y
1558172695.4,286046994.9,P
1558172715.2,286046995.5,P
1558172735.0,286046993.9,P
1558172736.0,286046993.9,Y
1558172755.8,286046998.9,P
1558172775.6,286047001.6,N
1558172795.5,286047004.2,N
1558172815.3,286047004.3,N
1558172835.1,286047003.4,N
1558172855.8,286047002.0,N
1558172875.7,286047001.0,N
1558172895.5,286046999.3,N
1558172915.3,286046997.1,N
1558172935.2,286046998.7,N
1558172955.9,286047000.0,N
1558172975.7,286047001.7,N
1558172995.6,286047005.3,N
1558173015.4,286047007.3,N
1558173035.2,286047009.0,N
1558173055.0,286047009.1,N
1558173056.0,286047009.1,N
1558173075.8,286047005.0,N
1558173095.6,286047004.2,N
1558173115.4,286047002.5,N
1558173135.3,286047000.5,N
1558173155.1,286046999.7,N
1558173175.8,286047000.2,N
1558173195.7,286047000.4,N
1558173215.5,286046999.8,N
1558173235.3,286047003.0,N
1558173255.2,286047007.6,N
1558173275.9,286047010.6,N
1558173295.7,286047012.4,Y
1558173315.6,286047008.5,P
1558173335.4,286047007.3,N
1558173355.2,286047008.5,P
1558173375.1,286047010.8,Y
1558173376.0,286047010.8,P
1558173395.8,286047002.0,N
1558173415.6,286047002.3,N
1558173435.5,286047000.5,N
1558173455.3,286046998.8,N
1558173475.1,286046999.6,N
1558173495.8,286046996.2,N
1558173515.7,286046998.0,N
1558173535.5,286046997.2,N
1558173555.3,286046998.4,N
1558173575.2,286046999.4,N
1558173595.9,286046997.4,N
